Location: Vista Encantada
(35.1109°N, 106.5681°W)
Time: 08:54:26
(UTC+00:00)

Cosmos 1954 Rocket - Pass Details

Date: 29 October 2020
Orbit: 752 x 782 km, 74.1° (Epoch: 04 December)

Event Time Altitude Azimuth Distance (km) Brightness Sun altitude
Rises 12:53:59 0° 198° (SSW) 3,195 7.1 -7.0°
Reaches altitude 10° 12:56:20 10° 199° (SSW) 2,271 6.4 -6.6°
Maximum altitude 13:01:29 81° 287° (WNW) 765 4.0 -5.5°
Drops below altitude 10° 13:06:39 10° 15° (NNE) 2,278 6.5 -4.5°
Sets 13:09:02 0° 17° (NNE) 3,207 7.3 -4.0°
